| time (UTC) | temp C | wind direction | speed KPH | gust KPH | rain 1hr cm | rain 24hr cm | rain mn cm | humidity % | barometer mb |
| 20260905010305 | 21 | 92 | 0.0 | 1.6 | 0.00 | 0.00 | 0.00 | 83 | 1021.0 |
| 20260905005805 | 21 | 41 | 1.6 | 4.8 | 0.00 | 0.00 | 0.00 | 83 | 1021.0 |
| 20260905005306 | 21 | 37 | 0.0 | 1.6 | 0.00 | 0.00 | 0.00 | 83 | 1021.0 |
| 20260905004805 | 21 | 65 | 0.0 | 1.6 | 0.00 | 0.00 | 0.00 | 83 | 1021.0 |
| 20260905002805 | 21 | 98 | 0.0 | 1.6 | 0.00 | 0.00 | 0.00 | 84 | 1021.0 |
| 20260905002306 | 21 | 86 | 0.0 | 4.8 | 0.00 | 0.00 | 0.00 | 84 | 1021.0 |
| 20260905001804 | 21 | 82 | 0.0 | 1.6 | 0.00 | 0.00 | 0.00 | 84 | 1021.0 |
| 20260905001305 | 21 | 93 | 0.0 | 1.6 | 0.00 | 0.00 | 0.00 | 84 | 1021.0 |
| 20260905000305 | 21 | 92 | 0.0 | 1.6 | 0.00 | 0.00 | 0.00 | 84 | 1021.0 |
| 20260904234305 | 21 | 52 | 0.0 | 3.2 | 0.00 | 0.00 | 0.00 | 85 | 1021.0 |
| 20260904233804 | 20 | 38 | 0.0 | 1.6 | 0.00 | 0.00 | 0.00 | 85 | 1021.0 |
| 20260904233304 | 20 | 5 | 0.0 | 4.8 | 0.00 | 0.00 | 0.00 | 85 | 1021.0 |
| 20260904232805 | 20 | 23 | 1.6 | 4.8 | 0.00 | 0.00 | 0.00 | 85 | 1021.0 |
| 20260904232306 | 20 | 22 | 0.0 | 3.2 | 0.00 | 0.00 | 0.00 | 85 | 1021.0 |
| 20260904231305 | 20 | 9 | 0.0 | 4.8 | 0.00 | 0.00 | 0.00 | 85 | 1021.0 |
| 20260904225805 | 20 | 0 | 0.0 | 4.8 | 0.00 | 0.00 | 0.00 | 85 | 1021.0 |
| 20260904225306 | 20 | 340 | 1.6 | 4.8 | 0.00 | 0.00 | 0.00 | 86 | 1021.0 |
| 20260904224805 | 20 | 72 | 0.0 | 3.2 | 0.00 | 0.00 | 0.00 | 86 | 1021.0 |
| 20260904224305 | 20 | 354 | 0.0 | 4.8 | 0.00 | 0.00 | 0.00 | 86 | 1021.0 |
| 20260904223305 | 20 | 339 | 0.0 | 4.8 | 0.00 | 0.00 | 0.00 | 86 | 1022.0 |
| 20260904220804 | 20 | 333 | 0.0 | 1.6 | 0.00 | 0.00 | 0.00 | 86 | 1021.0 |
| 20260904220304 | 20 | 334 | 0.0 | 1.6 | 0.00 | 0.00 | 0.00 | 85 | 1021.0 |
| 20260904215805 | 20 | 4 | 0.0 | 1.6 | 0.00 | 0.00 | 0.00 | 85 | 1021.0 |
| 20260904214804 | 20 | 23 | 0.0 | 0.0 | 0.00 | 0.00 | 0.00 | 85 | 1021.0 |
| 20260904213304 | 20 | 30 | 1.6 | 3.2 | 0.00 | 0.00 | 0.00 | 85 | 1021.0 |
| 20260904212805 | 20 | 31 | 0.0 | 1.6 | 0.00 | 0.00 | 0.00 | 85 | 1021.0 |
| 20260904212306 | 20 | 107 | 0.0 | 1.6 | 0.00 | 0.00 | 0.00 | 84 | 1021.0 |
| 20260904211805 | 20 | 109 | 0.0 | 4.8 | 0.00 | 0.00 | 0.00 | 84 | 1021.0 |
| 20260904211304 | 21 | 77 | 1.6 | 4.8 | 0.00 | 0.00 | 0.00 | 84 | 1021.0 |
| 20260904210804 | 21 | 87 | 1.6 | 3.2 | 0.00 | 0.00 | 0.00 | 83 | 1021.0 |
| 20260904210304 | 21 | 82 | 0.0 | 3.2 | 0.00 | 0.00 | 0.00 | 83 | 1021.0 |
| 20260904204304 | 21 | 31 | 1.6 | 4.8 | 0.00 | 0.00 | 0.00 | 82 | 1021.0 |
| 20260904203805 | 21 | 68 | 0.0 | 1.6 | 0.00 | 0.00 | 0.00 | 81 | 1020.0 |
| 20260904201805 | 21 | 107 | 0.0 | 0.0 | 0.00 | 0.00 | 0.00 | 80 | 1020.0 |
| 20260904201305 | 21 | 107 | 0.0 | 0.0 | 0.00 | 0.00 | 0.00 | 80 | 1020.0 |
| 20260904200305 | 21 | 107 | 0.0 | 0.0 | 0.00 | 0.00 | 0.00 | 80 | 1020.0 |
| 20260904195804 | 21 | 107 | 0.0 | 0.0 | 0.00 | 0.00 | 0.00 | 80 | 1020.0 |
| 20260904195306 | 21 | 107 | 0.0 | 1.6 | 0.00 | 0.00 | 0.00 | 79 | 1020.0 |
| 20260904194806 | 21 | 107 | 1.6 | 3.2 | 0.00 | 0.00 | 0.00 | 79 | 1020.0 |
| 20260904194305 | 22 | 107 | 0.0 | 3.2 | 0.00 | 0.00 | 0.00 | 79 | 1020.0 |
| 20260904191305 | 22 | 179 | 1.6 | 4.8 | 0.00 | 0.00 | 0.00 | 78 | 1020.0 |
| 20260904190304 | 22 | 140 | 1.6 | 4.8 | 0.00 | 0.00 | 0.00 | 77 | 1020.0 |
| 20260904185805 | 22 | 223 | 3.2 | 4.8 | 0.00 | 0.00 | 0.00 | 77 | 1020.0 |
| 20260904185306 | 22 | 245 | 6.4 | 9.7 | 0.00 | 0.00 | 0.00 | 76 | 1020.0 |
| 20260904183304 | 23 | 231 | 3.2 | 8.0 | 0.00 | 0.00 | 0.00 | 76 | 1020.0 |
| 20260904182805 | 23 | 232 | 1.6 | 4.8 | 0.00 | 0.00 | 0.00 | 76 | 1020.0 |
| 20260904181304 | 23 | 261 | 4.8 | 8.0 | 0.00 | 0.00 | 0.00 | 75 | 1020.0 |
| 20260904180305 | 23 | 276 | 6.4 | 9.7 | 0.00 | 0.00 | 0.00 | 76 | 1020.0 |
| 20260904175306 | 23 | 257 | 8.0 | 16.1 | 0.00 | 0.00 | 0.00 | 76 | 1020.0 |
| 20260904174805 | 23 | 252 | 4.8 | 9.7 | 0.00 | 0.00 | 0.00 | 76 | 1020.0 |
| 20260904171805 | 22 | 264 | 3.2 | 8.0 | 0.00 | 0.00 | 0.00 | 79 | 1020.0 |
| 20260904170304 | 22 | 275 | 4.8 | 8.0 | 0.00 | 0.00 | 0.00 | 78 | 1020.0 |
| 20260904165804 | 22 | 256 | 4.8 | 8.0 | 0.00 | 0.00 | 0.00 | 77 | 1020.0 |
| 20260904165305 | 22 | 242 | 3.2 | 4.8 | 0.00 | 0.00 | 0.00 | 77 | 1020.0 |
| 20260904164805 | 22 | 242 | 4.8 | 8.0 | 0.00 | 0.00 | 0.00 | 78 | 1020.0 |
| 20260904163304 | 22 | 211 | 3.2 | 8.0 | 0.00 | 0.00 | 0.00 | 78 | 1020.0 |
| 20260904162804 | 22 | 224 | 3.2 | 4.8 | 0.00 | 0.00 | 0.00 | 77 | 1020.0 |
| 20260904162306 | 22 | 212 | 4.8 | 8.0 | 0.00 | 0.00 | 0.00 | 77 | 1020.0 |
| 20260904155804 | 23 | 239 | 4.8 | 8.0 | 0.00 | 0.00 | 0.00 | 76 | 1021.0 |
| 20260904155306 | 23 | 146 | 4.8 | 9.7 | 0.00 | 0.00 | 0.00 | 77 | 1021.0 |
| 20260904153804 | 23 | 201 | 4.8 | 8.0 | 0.00 | 0.00 | 0.00 | 76 | 1021.0 |
| 20260904153304 | 23 | 125 | 4.8 | 8.0 | 0.00 | 0.00 | 0.00 | 76 | 1021.0 |
| 20260904152805 | 23 | 133 | 6.4 | 9.7 | 0.00 | 0.00 | 0.00 | 76 | 1021.0 |
| 20260904152306 | 23 | 137 | 8.0 | 9.7 | 0.00 | 0.00 | 0.00 | 75 | 1021.0 |
| 20260904151806 | 23 | 145 | 4.8 | 11.3 | 0.00 | 0.00 | 0.00 | 75 | 1021.0 |
| 20260904150805 | 23 | 192 | 8.0 | 11.3 | 0.00 | 0.00 | 0.00 | 74 | 1021.0 |
| 20260904150306 | 23 | 213 | 8.0 | 11.3 | 0.00 | 0.00 | 0.00 | 74 | 1021.0 |
| 20260904145306 | 24 | 172 | 4.8 | 11.3 | 0.00 | 0.00 | 0.00 | 72 | 1021.0 |
| 20260904144805 | 23 | 193 | 8.0 | 14.5 | 0.00 | 0.00 | 0.00 | 72 | 1021.0 |
| 20260904143805 | 23 | 231 | 8.0 | 16.1 | 0.00 | 0.00 | 0.00 | 72 | 1021.0 |
| 20260904143305 | 25 | 200 | 9.7 | 16.1 | 0.00 | 0.00 | 0.00 | 70 | 1021.0 |
| 20260904142805 | 23 | 197 | 9.7 | 19.3 | 0.00 | 0.00 | 0.00 | 72 | 1021.0 |
| 20260904142306 | 25 | 191 | 8.0 | 16.1 | 0.00 | 0.00 | 0.00 | 70 | 1021.0 |
| 20260904140306 | 24 | 209 | 8.0 | 14.5 | 0.00 | 0.00 | 0.00 | 69 | 1021.0 |
| 20260904134306 | 25 | 198 | 8.0 | 14.5 | 0.00 | 0.00 | 0.00 | 68 | 1021.0 |
| 20260904131305 | 24 | 221 | 6.4 | 11.3 | 0.00 | 0.00 | 0.00 | 71 | 1021.0 |
| 20260904125306 | 25 | 265 | 8.0 | 14.5 | 0.00 | 0.00 | 0.00 | 70 | 1021.0 |
| 20260904124806 | 24 | 251 | 6.4 | 14.5 | 0.00 | 0.00 | 0.00 | 70 | 1021.0 |
| 20260904124306 | 24 | 250 | 8.0 | 11.3 | 0.00 | 0.00 | 0.00 | 72 | 1021.0 |
| 20260904123305 | 24 | 246 | 6.4 | 14.5 | 0.00 | 0.00 | 0.00 | 71 | 1022.0 |
| 20260904122805 | 24 | 259 | 8.0 | 11.3 | 0.00 | 0.00 | 0.00 | 71 | 1022.0 |
| 20260904122307 | 23 | 237 | 8.0 | 11.3 | 0.00 | 0.00 | 0.00 | 72 | 1022.0 |
| 20260904115805 | 23 | 238 | 8.0 | 14.5 | 0.00 | 0.00 | 0.00 | 72 | 1022.0 |
| 20260904115307 | 25 | 238 | 8.0 | 14.5 | 0.00 | 0.00 | 0.00 | 70 | 1022.0 |
| 20260904112806 | 23 | 250 | 4.8 | 11.3 | 0.00 | 0.00 | 0.00 | 72 | 1022.0 |
| 20260904112306 | 24 | 255 | 4.8 | 9.7 | 0.00 | 0.00 | 0.00 | 72 | 1022.0 |
| 20260904111805 | 23 | 242 | 6.4 | 9.7 | 0.00 | 0.00 | 0.00 | 72 | 1022.0 |
| 20260904111306 | 23 | 201 | 6.4 | 12.9 | 0.00 | 0.00 | 0.00 | 73 | 1022.0 |
| 20260904101805 | 23 | 182 | 4.8 | 9.7 | 0.00 | 0.00 | 0.00 | 74 | 1022.0 |
| 20260904101306 | 23 | 149 | 8.0 | 14.5 | 0.00 | 0.00 | 0.00 | 76 | 1022.0 |
| 20260904100805 | 22 | 180 | 8.0 | 14.5 | 0.00 | 0.00 | 0.00 | 75 | 1021.0 |
| 20260904095805 | 22 | 98 | 9.7 | 14.5 | 0.00 | 0.00 | 0.00 | 75 | 1021.0 |
| 20260904094805 | 23 | 134 | 8.0 | 14.5 | 0.00 | 0.00 | 0.00 | 75 | 1021.0 |
| 20260904094305 | 22 | 169 | 8.0 | 16.1 | 0.00 | 0.00 | 0.00 | 75 | 1021.0 |
| 20260904093805 | 23 | 163 | 6.4 | 16.1 | 0.00 | 0.00 | 0.00 | 74 | 1021.0 |
| 20260904093305 | 23 | 170 | 8.0 | 11.3 | 0.00 | 0.00 | 0.00 | 74 | 1021.0 |
| 20260904092805 | 22 | 92 | 8.0 | 14.5 | 0.00 | 0.00 | 0.00 | 75 | 1021.0 |
| 20260904092306 | 22 | 120 | 8.0 | 14.5 | 0.00 | 0.00 | 0.00 | 76 | 1021.0 |
| 20260904085805 | 22 | 155 | 8.0 | 14.5 | 0.00 | 0.00 | 0.00 | 76 | 1021.0 |
| 20260904085306 | 22 | 111 | 8.0 | 14.5 | 0.00 | 0.00 | 0.00 | 76 | 1021.0 |
| 20260904083805 | 22 | 120 | 4.8 | 9.7 | 0.00 | 0.00 | 0.00 | 75 | 1021.0 |
| 20260904082805 | 22 | 41 | 8.0 | 12.9 | 0.00 | 0.00 | 0.00 | 75 | 1021.0 |
| 20260904082306 | 22 | 88 | 8.0 | 11.3 | 0.00 | 0.00 | 0.00 | 75 | 1021.0 |
| 20260904074305 | 20 | 56 | 3.2 | 9.7 | 0.00 | 0.00 | 0.00 | 79 | 1021.0 |
| 20260904072306 | 19 | 44 | 3.2 | 4.8 | 0.00 | 0.00 | 0.00 | 81 | 1021.0 |
| 20260904071805 | 18 | 44 | 0.0 | 3.2 | 0.00 | 0.00 | 0.00 | 81 | 1021.0 |
| 20260904071305 | 18 | 66 | 0.0 | 0.0 | 0.00 | 0.00 | 0.00 | 81 | 1021.0 |
| 20260904070805 | 18 | 53 | 0.0 | 0.0 | 0.00 | 0.00 | 0.00 | 81 | 1021.0 |
| 20260904070305 | 18 | 43 | 0.0 | 0.0 | 0.00 | 0.00 | 0.00 | 80 | 1021.0 |
| 20260904065805 | 18 | 55 | 0.0 | 0.0 | 0.00 | 0.00 | 0.00 | 80 | 1021.0 |
| 20260904064805 | 18 | 42 | 0.0 | 0.0 | 0.00 | 0.00 | 0.00 | 81 | 1021.0 |
| 20260904064305 | 18 | 39 | 0.0 | 0.0 | 0.00 | 0.00 | 0.00 | 81 | 1021.0 |
| 20260904063806 | 18 | 37 | 0.0 | 0.0 | 0.00 | 0.00 | 0.00 | 82 | 1021.0 |
| 20260904062805 | 18 | 42 | 0.0 | 0.0 | 0.00 | 0.00 | 0.00 | 82 | 1021.0 |
| 20260904062306 | 18 | 28 | 0.0 | 0.0 | 0.00 | 0.00 | 0.00 | 82 | 1021.0 |
| 20260904061805 | 18 | 26 | 0.0 | 0.0 | 0.00 | 0.00 | 0.00 | 82 | 1021.0 |
| 20260904061305 | 18 | 36 | 0.0 | 0.0 | 0.00 | 0.00 | 0.00 | 82 | 1021.0 |
| 20260904060805 | 18 | 28 | 0.0 | 0.0 | 0.00 | 0.00 | 0.00 | 82 | 1020.0 |
| 20260904060305 | 19 | 355 | 0.0 | 0.0 | 0.00 | 0.00 | 0.00 | 82 | 1020.0 |
| 20260904054804 | 19 | 16 | 0.0 | 0.0 | 0.00 | 0.00 | 0.00 | 82 | 1020.0 |
| 20260904054305 | 19 | 296 | 0.0 | 0.0 | 0.00 | 0.00 | 0.00 | 81 | 1020.0 |
| 20260904053805 | 19 | 340 | 0.0 | 0.0 | 0.00 | 0.00 | 0.00 | 81 | 1020.0 |
| 20260904053305 | 19 | 330 | 0.0 | 0.0 | 0.00 | 0.00 | 0.00 | 81 | 1020.0 |
| 20260904052805 | 19 | 339 | 0.0 | 0.0 | 0.00 | 0.00 | 0.00 | 80 | 1020.0 |
| 20260904052307 | 19 | 342 | 0.0 | 0.0 | 0.00 | 0.00 | 0.00 | 80 | 1020.0 |
| 20260904051804 | 20 | 329 | 0.0 | 0.0 | 0.00 | 0.00 | 0.00 | 80 | 1020.0 |
| 20260904051305 | 20 | 357 | 0.0 | 0.0 | 0.00 | 0.00 | 0.00 | 80 | 1020.0 |
| 20260904050805 | 20 | 14 | 0.0 | 0.0 | 0.00 | 0.00 | 0.00 | 80 | 1020.0 |
| 20260904042805 | 21 | 312 | 0.0 | 0.0 | 0.00 | 0.00 | 0.00 | 81 | 1020.0 |
| 20260904042306 | 21 | 39 | 0.0 | 0.0 | 0.00 | 0.00 | 0.00 | 81 | 1020.0 |
| 20260904040305 | 21 | 289 | 0.0 | 4.8 | 0.00 | 0.00 | 0.00 | 81 | 1020.0 |
| 20260904035805 | 21 | 357 | 0.0 | 3.2 | 0.00 | 0.00 | 0.00 | 81 | 1020.0 |
| 20260904033805 | 21 | 288 | 0.0 | 1.6 | 0.00 | 0.00 | 0.00 | 81 | 1021.0 |
| 20260904033305 | 21 | 325 | 0.0 | 1.6 | 0.00 | 0.00 | 0.00 | 81 | 1021.0 |
| 20260904032805 | 21 | 355 | 0.0 | 1.6 | 0.00 | 0.00 | 0.00 | 81 | 1021.0 |
| 20260904032306 | 21 | 335 | 1.6 | 4.8 | 0.00 | 0.00 | 0.00 | 81 | 1021.0 |
| 20260904030805 | 21 | 304 | 1.6 | 4.8 | 0.00 | 0.00 | 0.00 | 81 | 1021.0 |
| 20260904023805 | 21 | 332 | 0.0 | 3.2 | 0.00 | 0.00 | 0.00 | 81 | 1021.0 |
| 20260904023305 | 21 | 329 | 0.0 | 1.6 | 0.00 | 0.00 | 0.00 | 81 | 1021.0 |
| 20260904022805 | 21 | 1 | 0.0 | 1.6 | 0.00 | 0.00 | 0.00 | 81 | 1021.0 |
| 20260904020805 | 21 | 355 | 0.0 | 0.0 | 0.00 | 0.00 | 0.00 | 81 | 1022.0 |
| 20260904015306 | 21 | 36 | 0.0 | 3.2 | 0.00 | 0.00 | 0.00 | 81 | 1022.0 |
| 20260904014304 | 21 | 291 | 0.0 | 0.0 | 0.00 | 0.00 | 0.00 | 81 | 1022.0 |
| 20260904013805 | 21 | 313 | 0.0 | 0.0 | 0.00 | 0.00 | 0.00 | 81 | 1022.0 |
| 20260904011804 | 21 | 305 | 0.0 | 1.6 | 0.00 | 0.00 | 0.00 | 81 | 1022.0 |
| 20260904011305 | 21 | 140 | 0.0 | 1.6 | 0.00 | 0.00 | 0.00 | 82 | 1022.0 |